Starlink 11248

operational
NORAD ID: 60914 Int'l Des: 2024-154 Owner: SPXS Country: US Constellation: starlink
LEOCIRCULAR

Starlink 11248について

説明を読み込み中...

リアルタイム位置

3D地球を読み込み中...

次回通過

高度履歴

Altitude vs Time

uPlot chart will show altitude changes over time

軌道要素

1 60914U 24154M 25258.07245059 -.00000196 00000-0 32485-5 0 9994
2 60914 53.1608 276.8474 0001537 98.6257 261.4935 15.69707186 60923
Epoch: Sep 15, 2025 • Age: 29 hours

現在のステータス

高度 378.9 km
速度 7.68 km/s
衛星直下点 -52.27°S, 104.71°E
打ち上げ日 Aug 31, 2024
運用期間 1 years
タイプ internet

技術仕様

分類 Payload
質量 960.00 kg
乾燥質量 910.00 kg
総質量 960.00 kg
長さ 0.30 m
直径 4.10 m
スパン 29.00 m
形状 Box + pan
製造者 SPXS
バスタイプ Starlink V2MD
フェーズステータス In Orbit
所有者/国 SPXS/US

大規模コンステレーション

Loading constellations...